Theta_e
310 310 310 308 307 308 309 309 309 309 308 307 307 305 303 303 300 298 299 301 300 301 303 300 303 305 304 305 307 306 306 308 307 306 306 306 307 307 307 305 305 305 304 305 305 305 305 305 304 305 306 306 306 305 304 303 303 302 302 303 305 305 303 303 304 304 305 307 307 304 304 304 304 305
310 309 308 308 307 308 308 307 309 308 308 307 306 306 306 305 301 301 299 299 303 301 304 303 301 304 304 305 306 306 306 309 309 306 305 306 307 307 306 305 304 304 304 304 302 302 302 304 305 306 306 305 304 304 303 303 303 302 303 303 303 302 302 302 302 303 303 303 304 304 304 304 304 305
309 308 307 308 307 309 308 308 308 308 307 307 306 305 306 306 304 303 301 298 302 304 302 303 304 304 305 304 305 305 305 307 307 306 306 305 307 308 307 306 305 304 304 303 304 306 304 303 303 304 304 304 304 304 304 303 303 303 303 302 301 301 301 301 301 303 304 304 305 305 304 304 305 306
308 308 308 308 308 308 307 307 307 307 307 308 305 305 305 305 305 304 302 300 300 304 303 303 304 305 305 306 304 304 305 306 308 306 305 306 308 305 305 305 305 305 304 303 303 303 302 301 302 302 304 304 305 304 303 303 302 302 301 301 301 301 301 301 301 303 303 304 304 305 304 304 304 305
307 306 305 305 306 308 307 307 307 306 306 307 307 307 305 305 305 304 302 299 300 303 306 305 304 306 306 304 304 303 304 304 305 306 306 306 306 305 305 305 305 304 303 303 302 302 301 301 304 305 304 303 303 303 302 301 301 301 301 300 301 301 301 301 301 301 302 303 303 303 303 303 303 303
307 307 306 305 306 307 306 306 305 306 306 306 304 305 305 303 304 305 302 300 300 300 304 303 304 304 305 302 304 303 303 304 305 304 303 305 305 305 304 303 304 304 304 303 302 302 301 301 301 301 300 300 300 301 300 300 300 300 300 298 298 300 300 301 301 301 302 302 301 301 301 302 302 303
306 306 306 306 307 308 308 307 306 307 307 306 305 304 305 304 304 304 304 302 300 300 300 303 302 303 303 303 302 303 304 304 303 302 303 303 304 304 304 303 304 303 303 302 301 301 301 301 301 300 300 300 300 300 299 299 299 299 299 298 298 300 300 300 300 301 302 302 301 301 301 302 303 303
306 306 305 306 307 307 306 306 306 306 306 306 306 305 305 305 304 305 305 304 302 301 299 302 301 302 301 302 302 303 304 302 302 303 303 303 303 303 303 303 304 304 303 303 302 302 302 302 301 301 300 300 300 300 299 299 299 299 298 298 299 299 299 299 299 300 301 300 300 300 300 301 302 303
306 306 306 305 306 307 307 306 304 304 305 305 306 305 303 303 304 304 304 303 303 301 299 300 302 302 301 302 303 303 301 301 301 303 302 302 301 302 303 304 304 304 304 303 303 302 302 301 301 301 300 300 300 299 299 299 299 299 299 299 299 299 299 300 300 301 300 300 300 300 301 301 302 303
307 306 306 307 307 305 305 304 304 303 303 304 304 304 302 302 302 302 302 302 301 301 299 300 299 301 300 301 302 302 301 300 300 300 301 301 301 301 302 303 304 305 304 305 305 303 302 302 301 301 300 299 299 299 299 299 299 299 299 299 299 299 299 299 300 300 299 300 300 300 300 300 301 302
307 307 306 307 305 304 304 303 302 301 302 303 303 302 302 301 301 300 300 300 300 300 299 299 300 299 301 301 299 300 301 301 300 298 297 297 300 301 301 300 303 304 304 304 302 302 302 302 303 301 299 299 300 300 299 299 299 299 300 298 298 297 297 297 298 299 300 300 300 299 299 298 299 300
307 307 307 306 303 303 302 302 301 300 299 301 301 301 300 300 299 299 299 299 298 298 298 298 297 298 299 299 301 300 300 299 298 299 297 296 297 299 301 302 301 303 303 302 303 303 303 302 301 300 300 300 300 300 300 301 301 301 300 298 298 299 298 298 298 298 299 299 299 298 297 298 299 299
307 306 307 305 302 300 300 300 301 301 300 300 298 299 299 299 298 298 298 298 297 297 297 297 298 298 297 298 298 297 297 296 295 297 298 298 298 299 299 301 303 303 301 302 302 302 302 301 300 300 299 299 301 300 300 300 301 300 298 297 297 298 298 298 299 299 299 299 299 298 298 298 299 298
307 308 306 301 298 299 301 302 300 297 297 299 300 299 299 298 297 297 297 297 297 297 295 296 296 296 296 296 297 296 297 297 298 297 298 297 298 299 298 300 302 303 302 301 299 300 301 300 298 298 298 299 299 298 299 299 299 299 297 297 297 297 297 297 298 298 299 299 299 299 298 298 298 298
307 307 307 303 301 302 302 303 299 297 295 295 296 297 297 300 299 298 297 296 297 295 295 296 297 296 295 296 297 297 296 297 296 297 298 297 297 296 295 294 299 303 302 302 299 299 301 299 297 297 297 297 297 298 298 298 298 298 297 297 297 297 297 297 297 297 297 297 298 298 297 297 298 298
308 307 307 307 306 306 301 304 306 301 296 294 294 293 293 294 294 296 299 297 296 296 295 296 296 296 296 295 297 296 296 296 297 298 298 297 296 296 296 296 295 300 304 300 298 297 299 298 297 295 296 297 297 297 297 297 297 297 297 297 297 296 297 297 297 297 297 297 296 297 297 297 296 296
308 307 306 306 306 307 302 304 303 302 304 299 294 295 296 295 294 291 291 292 299 299 297 297 296 297 296 296 297 298 297 298 297 297 296 297 297 297 296 297 297 300 303 300 297 295 297 298 296 294 296 296 296 296 297 297 296 296 296 296 296 296 296 296 297 296 296 297 297 297 297 297 297 297
307 307 306 306 305 306 306 305 300 300 301 302 304 306 306 306 305 295 292 291 291 296 300 299 298 299 300 298 299 300 300 298 296 296 295 297 297 297 297 299 299 302 302 300 297 294 296 297 295 293 294 296 295 296 296 295 296 296 296 296 296 296 296 296 296 296 296 296 296 296 297 297 296 296
307 307 307 306 305 305 306 303 300 299 299 300 303 305 305 305 305 306 305 304 304 302 301 301 301 301 301 301 301 301 301 300 300 299 298 298 298 299 301 301 301 301 302 302 297 292 295 297 294 293 294 295 294 295 295 295 295 295 295 295 295 295 295 295 295 295 295 295 295 295 295 295 296 296
308 307 305 305 305 304 305 297 289 295 298 299 302 304 304 304 305 306 306 299 298 302 302 302 301 302 302 298 302 302 301 300 301 301 300 300 299 297 297 296 298 298 300 303 297 294 294 297 294 293 294 294 293 295 295 294 295 295 294 294 295 295 295 295 295 295 295 295 295 295 295 294 294 294
307 307 305 305 305 305 305 294 290 291 292 299 302 303 302 304 305 304 306 298 293 293 293 293 292 292 292 292 292 293 293 296 299 300 298 296 297 296 295 295 296 297 299 302 298 296 294 295 294 293 293 293 293 293 294 294 294 294 294 295 295 296 296 296 295 295 295 295 295 294 294 294 294 294
307 305 302 302 304 305 305 288 290 289 296 300 301 301 301 302 302 302 301 301 301 297 296 296 295 294 293 293 293 293 294 294 296 300 295 297 298 296 295 293 295 297 298 301 300 297 294 294 295 292 293 292 293 293 293 293 294 294 294 295 296 296 296 296 295 295 295 295 295 294 294 294 295 296
306 304 300 300 300 302 299 287 291 289 295 299 300 300 302 301 300 300 299 299 299 301 302 303 304 304 300 305 304 303 297 295 300 301 300 299 297 295 295 295 295 294 296 301 301 297 294 293 293 292 289 287 291 294 293 293 293 293 293 294 294 295 296 296 295 295 295 295 295 295 295 295 295 296
305 304 300 299 293 289 289 289 288 289 289 297 300 300 301 300 297 299 298 299 300 300 301 303 303 303 303 303 303 303 302 303 303 302 301 300 298 296 295 295 295 294 295 301 302 298 295 294 291 293 290 286 285 290 292 292 292 293 293 293 293 294 296 296 297 297 295 295 295 295 295 295 295 296
303 303 302 302 294 289 290 289 289 289 289 290 298 300 300 300 301 296 298 300 299 302 303 302 302 301 301 301 301 300 300 300 300 300 301 301 300 298 296 295 296 295 297 302 298 301 292 295 291 290 290 290 289 288 290 291 292 292 293 292 292 293 294 296 297 299 298 296 295 295 295 295 295 296
303 303 303 305 295 289 290 289 289 289 289 289 297 300 294 292 291 300 299 299 301 302 302 301 300 300 300 299 299 299 299 299 300 300 300 301 300 300 299 298 296 295 296 301 298 301 296 293 292 289 288 287 288 289 288 289 291 291 292 292 292 293 295 296 299 300 302 304 302 296 296 294 295 294
304 305 305 301 291 289 290 289 289 290 289 290 296 292 292 292 291 292 298 300 302 301 301 301 300 299 300 299 299 299 299 300 300 300 300 300 300 300 301 301 301 299 300 301 301 303 297 293 294 290 288 287 286 288 287 286 287 290 291 291 292 293 296 299 299 300 303 306 305 297 295 294 294 294
304 305 305 298 288 289 289 289 289 289 290 296 293 291 290 290 291 297 299 301 302 300 300 299 299 299 300 300 300 299 300 300 301 300 300 300 300 300 300 300 300 301 301 301 301 303 302 298 295 294 291 288 285 285 285 288 288 289 288 290 292 292 294 296 296 299 302 304 307 298 298 296 296 296
300 292 289 289 290 290 289 289 289 290 291 289 289 289 289 292 299 301 302 301 301 300 299 298 299 300 300 300 301 302 303 303 302 301 301 301 301 301 300 300 301 301 302 302 301 300 303 301 297 293 291 290 287 286 286 285 287 288 289 288 288 290 293 295 296 298 302 305 306 300 300 299 298 298
289 288 289 288 288 290 293 299 301 301 302 295 292 290 291 301 301 302 302 301 300 300 299 298 298 299 300 301 302 303 303 301 300 300 299 298 298 299 298 297 297 300 301 302 301 300 299 303 300 293 290 291 289 286 286 285 286 288 289 288 288 291 292 293 295 299 302 304 305 302 303 303 301 299
299 299 296 297 293 293 292 293 293 294 295 298 301 302 301 301 302 302 302 301 301 300 300 299 300 300 301 302 302 301 300 300 300 301 299 298 297 298 297 296 296 296 299 301 301 300 300 300 301 299 291 291 289 287 286 286 287 287 288 288 288 285 289 293 296 300 301 304 307 307 307 305 303 301
300 300 295 295 299 300 300 299 300 300 301 301 300 304 303 303 302 300 298 298 302 303 301 300 301 300 301 300 300 300 300 300 300 301 299 298 298 297 297 295 294 295 296 298 300 301 298 300 299 298 295 289 287 287 287 288 287 287 288 289 289 289 291 291 293 296 300 305 306 306 304 304 303 305
301 300 300 300 300 300 299 297 303 303 303 304 304 305 304 304 303 303 302 301 302 301 300 300 300 300 300 300 300 299 299 299 299 301 300 299 298 298 297 294 294 293 293 294 297 298 300 300 301 299 298 288 288 286 287 286 287 288 288 288 288 288 290 291 292 294 299 301 304 303 302 301 301 301
300 301 299 299 298 300 300 300 300 301 302 302 301 302 298 300 301 301 300 300 301 302 300 300 299 299 298 299 299 299 298 299 299 300 297 299 299 297 296 295 294 294 294 294 295 296 298 299 299 298 299 295 289 290 289 286 286 287 289 289 288 287 289 290 292 294 297 296 298 299 299 299 299 299
295 295 294 295 296 297 299 298 299 296 298 298 298 299 300 302 300 297 301 301 300 301 297 300 301 300 299 299 299 298 297 298 299 300 300 299 299 297 296 295 295 294 294 295 295 296 296 297 296 295 295 296 295 293 290 291 287 286 288 289 289 289 288 290 291 292 294 296 296 294 295 296 296 297
293 293 293 293 293 296 297 297 298 300 300 299 300 300 298 299 299 299 298 301 303 299 300 298 297 298 298 299 298 299 299 297 299 299 298 299 298 298 297 296 295 295 295 295 295 296 296 296 295 293 291 291 291 290 291 292 291 288 287 287 288 288 289 290 290 291 291 292 295 292 290 290 293 295
291 293 294 295 296 297 296 299 300 300 301 301 302 301 300 299 300 302 303 300 302 299 300 297 298 298 298 297 297 296 297 297 296 297 297 298 298 297 296 294 294 295 295 296 296 296 296 296 295 294 292 290 289 288 290 293 290 291 289 287 287 288 288 289 289 288 289 290 292 293 290 290 290 293
294 295 294 295 296 298 299 301 302 301 302 301 301 301 302 301 302 302 304 303 300 299 300 298 298 297 297 297 298 297 296 298 298 295 296 297 296 296 296 295 294 296 296 296 296 296 296 296 295 295 293 290 289 289 289 292 291 290 290 290 287 287 289 288 287 287 288 289 289 293 294 289 289 291
297 296 295 295 296 298 300 301 301 300 302 302 301 301 302 302 302 302 301 300 301 300 300 297 298 297 297 300 299 296 297 297 296 296 296 296 297 296 296 295 294 296 296 294 296 296 296 295 295 295 294 291 290 291 292 290 291 290 290 290 290 288 287 287 286 288 287 287 289 291 293 295 294 290
297 297 297 297 298 300 301 303 302 303 302 302 303 303 303 300 301 301 301 298 300 301 299 297 297 298 297 299 297 298 298 299 297 297 296 296 296 296 295 295 295 294 294 293 293 295 295 294 293 294 294 295 295 296 295 294 294 293 289 289 290 290 288 288 286 287 287 289 290 288 287 288 287 289
297 297 296 297 298 301 301 302 302 302 303 303 304 301 303 302 301 301 300 300 296 297 297 298 298 299 297 297 297 297 296 296 297 297 297 296 295 294 294 292 295 296 294 293 294 294 295 297 296 289 296 297 297 299 294 292 290 291 291 289 289 289 290 291 289 288 287 289 289 288 286 286 286 286
299 298 298 298 299 300 302 302 303 303 304 304 304 303 303 301 301 297 298 295 300 296 298 298 298 297 297 298 297 296 296 296 296 296 296 296 296 295 294 294 295 295 294 293 294 295 298 299 299 299 299 295 295 293 290 290 290 291 292 292 289 289 290 288 289 289 289 289 288 287 287 286 287 285
298 299 299 299 300 301 303 303 304 304 304 304 303 303 301 299 299 298 299 297 296 297 297 298 298 298 298 298 298 297 297 296 296 296 295 295 295 295 295 295 295 295 296 294 297 297 296 298 299 297 296 295 293 293 291 291 292 292 291 292 292 292 288 289 289 288 288 289 289 289 289 286 284 282
300 299 300 300 301 303 303 303 303 303 304 305 303 301 297 299 299 299 297 298 298 297 298 297 298 298 297 298 297 297 297 297 297 296 296 296 296 296 296 295 295 294 296 296 296 296 296 296 297 297 295 294 294 293 292 292 292 292 292 292 292 293 293 292 289 289 289 288 288 288 288 288 288 287
299 300 301 302 302 303 303 304 304 304 304 304 299 301 299 299 298 298 298 296 297 297 297 298 297 297 298 298 298 296 297 295 296 297 297 297 296 296 296 296 295 295 295 296 295 295 295 295 296 297 295 295 294 293 293 293 293 292 293 291 291 292 293 293 293 292 290 289 288 288 288 289 289 289
Wind_Speed
6 5 5 4 4 4 4 4 5 4 4 4 4 4 5 6 4 4 4 4 5 6 7 7 7 8 9 9 9 9 10 11 11 11 12 13 12 14 15 17 20 20 20 19 17 17 17 16 16 16 18 19 20 22 22 22 22 22 25 27 26 26 26 24 22 24 23 24 24 22 21 20 19 19
5 5 5 4 4 4 4 4 4 3 3 3 4 4 4 5 5 5 5 5 4 7 7 7 8 10 10 10 10 10 10 11 11 13 13 13 13 17 19 20 18 16 15 14 14 15 15 15 16 17 19 20 20 20 21 20 20 21 25 27 26 25 24 23 24 24 25 25 24 24 23 22 21 21
5 5 4 4 4 3 3 2 3 3 3 3 3 3 3 3 5 5 5 6 4 6 8 8 9 10 11 10 11 10 10 11 13 13 13 14 16 18 16 16 15 15 15 14 14 15 14 14 14 15 17 19 20 20 21 20 21 23 24 23 22 23 23 23 23 24 25 25 25 25 25 23 22 21
4 4 3 3 2 1 1 2 2 2 3 3 3 3 3 2 3 4 5 7 8 7 8 9 10 11 11 11 11 12 10 10 14 13 13 14 16 15 14 16 16 14 12 13 15 14 12 14 16 17 17 18 18 20 21 20 21 22 21 19 19 19 21 22 23 24 25 24 24 25 25 24 23 21
4 5 5 4 4 3 2 2 2 3 3 2 2 3 3 3 4 5 6 7 9 8 7 9 9 10 10 10 11 13 12 12 12 14 13 15 14 14 14 15 17 15 14 15 15 15 17 18 17 16 17 16 18 19 18 18 18 19 19 20 19 20 21 22 22 23 25 25 24 24 25 24 23 22
4 3 4 5 4 3 3 3 4 4 3 3 4 4 4 4 4 5 6 7 8 10 9 9 10 10 9 11 11 11 12 12 12 14 15 13 14 14 14 15 15 16 15 17 19 19 18 17 16 16 16 16 16 16 17 17 18 20 20 20 20 20 21 22 23 23 24 25 25 25 23 23 23 22
5 4 3 3 2 0 1 1 3 3 4 4 3 4 4 4 5 5 6 7 8 10 10 10 10 9 10 10 11 13 11 12 13 15 15 14 13 13 15 15 14 16 15 18 20 16 14 15 16 17 17 16 16 17 17 18 19 20 20 21 20 19 20 20 21 23 23 23 24 25 24 24 22 21
4 4 3 2 1 1 1 3 3 4 4 4 3 4 5 5 5 6 6 7 8 9 10 10 10 10 10 9 11 11 11 12 13 13 14 14 15 15 15 15 14 15 18 19 14 14 16 19 20 18 19 20 19 17 17 19 20 20 20 20 20 20 20 20 20 19 22 22 21 21 22 24 23 22
4 3 3 3 2 1 2 2 4 4 5 4 4 5 5 5 6 6 7 8 8 9 10 10 9 10 10 10 11 11 12 13 13 13 14 15 16 16 15 14 13 16 16 16 15 15 16 18 20 21 20 19 19 22 21 20 20 20 20 20 19 19 19 19 19 21 21 21 20 21 22 23 24 23
4 3 3 1 2 2 2 3 4 5 5 4 5 5 6 6 7 7 8 7 8 9 9 10 10 9 10 10 10 12 12 14 14 13 13 14 15 16 15 13 12 12 12 11 11 14 17 19 19 18 18 21 23 23 21 19 18 18 18 18 18 19 18 19 19 19 19 19 20 21 21 21 22 23
4 3 2 2 2 2 3 3 4 5 6 4 5 5 6 7 7 7 7 8 9 9 9 9 9 10 9 10 11 11 13 13 13 15 16 15 12 12 14 16 13 11 13 15 16 15 14 18 19 19 19 19 21 20 17 17 18 17 17 17 17 16 16 17 17 18 18 19 19 18 18 17 18 19
4 3 3 3 3 3 4 4 4 5 5 6 5 5 6 7 7 7 7 8 8 8 9 9 9 9 10 10 9 11 12 12 12 11 14 17 17 16 14 14 16 14 14 15 15 16 17 19 20 20 20 21 20 21 20 20 19 19 17 10 8 9 12 13 15 15 16 17 17 17 16 16 16 16
4 4 3 3 4 4 2 2 3 3 4 4 5 6 6 6 7 7 7 7 8 8 9 9 9 9 10 10 11 12 11 12 14 15 14 15 15 16 16 15 14 13 15 16 17 17 16 19 19 19 17 17 22 20 21 19 19 16 8 7 10 11 11 11 13 14 15 16 17 17 17 17 17 16
5 5 5 5 6 6 7 8 7 6 6 7 4 4 5 5 6 6 7 7 7 8 9 9 10 10 10 11 11 12 12 12 14 15 15 16 16 16 15 13 11 13 15 16 16 17 16 18 19 17 19 18 19 18 16 16 16 18 21 18 17 14 13 13 13 14 15 15 16 16 16 16 16 15
5 4 5 7 7 8 9 9 10 9 10 10 10 11 10 8 6 5 7 7 8 8 9 9 9 10 12 12 12 11 12 12 14 14 14 15 15 15 17 18 15 10 14 10 12 14 16 15 17 19 18 19 20 18 17 20 21 21 18 16 17 18 17 15 14 14 15 14 15 15 15 16 15 15
5 5 3 3 3 3 3 3 6 10 12 11 12 13 12 11 12 11 7 5 7 8 9 9 10 11 11 12 12 11 12 13 14 14 14 15 15 17 17 16 16 15 14 13 11 12 11 14 18 19 19 20 18 18 22 22 20 21 23 22 20 19 19 18 17 16 15 16 15 16 16 16 16 15
4 4 4 4 3 3 6 8 3 5 4 11 15 15 14 13 12 12 15 13 8 6 9 9 10 10 11 12 11 12 13 13 15 15 15 15 15 16 17 16 17 18 14 10 8 10 10 10 12 15 17 16 17 20 20 21 22 23 24 23 21 19 19 19 18 17 17 17 17 17 17 17 17 16
3 4 4 4 4 3 3 1 4 5 6 7 6 7 7 6 10 15 14 14 15 13 8 9 10 11 11 12 13 14 14 14 15 15 16 17 17 17 17 19 18 16 13 9 8 10 9 8 11 16 17 16 19 18 21 23 22 22 24 23 18 16 16 17 18 18 17 17 17 18 18 18 17 16
5 4 3 1 1 2 2 4 4 5 7 7 7 7 6 6 7 4 7 8 5 6 8 9 10 11 11 12 14 14 14 14 13 14 16 18 18 16 17 16 14 15 13 7 4 8 10 9 14 18 18 17 16 16 20 22 23 22 23 23 21 20 20 18 17 17 17 17 17 18 18 17 16 16
4 4 4 4 3 2 2 5 3 2 5 7 8 7 7 7 6 6 3 2 5 7 9 9 10 11 13 14 14 14 14 12 12 12 14 14 14 16 15 16 15 14 14 5 3 7 9 9 11 13 17 18 18 16 16 21 23 23 24 24 24 23 21 18 17 17 17 17 17 17 17 17 16 15
5 5 5 5 3 3 4 4 2 2 3 7 8 7 8 7 7 7 2 7 10 11 12 14 16 17 18 19 20 19 21 15 12 10 13 14 15 15 16 16 16 16 17 5 4 5 8 8 10 17 15 14 14 14 15 14 19 22 21 20 21 20 20 19 17 17 17 17 17 17 17 16 15 15
5 4 8 5 2 1 4 4 2 3 4 7 7 7 8 8 7 7 8 9 9 11 12 13 15 16 17 18 18 18 16 16 11 10 15 15 14 15 15 16 16 16 16 6 3 5 4 8 10 15 13 12 10 12 11 13 18 21 18 20 19 18 18 19 19 17 17 17 17 16 16 15 14 11
5 5 6 4 5 4 4 3 2 2 3 6 7 8 8 7 8 8 10 10 11 11 11 11 11 10 10 9 9 10 13 14 12 11 13 14 14 15 15 16 17 16 15 5 1 6 5 7 9 13 15 13 10 7 9 13 15 17 16 15 16 19 19 19 16 17 16 17 16 16 15 14 13 10
6 6 6 7 9 4 3 1 2 3 1 4 7 8 7 7 8 9 11 11 11 12 12 11 11 11 10 10 10 10 11 12 13 13 13 13 13 14 15 15 15 15 15 7 3 4 2 3 9 10 9 12 13 15 13 12 12 11 13 15 15 17 18 17 15 14 17 16 16 15 14 15 15 10
6 6 7 7 10 8 6 4 3 4 5 5 6 7 7 7 8 9 9 12 14 12 10 10 10 10 10 10 10 10 11 12 12 13 13 13 13 14 15 14 15 16 16 10 2 4 2 4 8 9 10 9 11 15 14 13 12 12 14 15 15 14 12 12 10 10 9 15 15 15 15 16 20 14
6 6 7 6 8 8 6 6 4 5 7 6 5 7 12 13 13 11 10 11 10 8 9 9 10 10 10 10 11 11 11 12 13 14 14 13 14 13 13 14 14 14 16 15 9 1 3 5 7 9 11 11 13 13 15 12 11 12 13 12 13 13 12 11 10 10 8 6 5 11 12 18 19 20
5 4 4 8 9 8 7 5 5 6 8 6 8 13 15 15 16 12 8 10 8 8 9 9 9 10 10 10 11 11 12 12 12 13 13 14 15 14 13 14 14 14 15 14 15 2 1 2 4 6 10 12 13 12 9 12 16 16 13 13 14 12 10 9 9 9 8 4 5 13 13 17 18 19
4 3 5 7 8 7 4 4 5 7 7 8 12 12 13 14 13 8 10 7 7 8 8 8 9 10 10 10 11 11 12 12 12 12 13 14 15 15 14 15 14 14 15 14 16 6 3 3 4 5 6 8 12 13 13 14 13 13 13 15 11 10 9 9 10 10 9 8 2 7 7 8 9 10
7 5 3 5 4 4 4 6 8 8 11 14 14 16 17 14 8 9 5 6 7 8 8 9 9 9 10 10 10 11 12 12 11 12 12 13 13 14 15 14 13 11 10 11 14 14 4 3 5 5 5 4 8 8 9 11 13 13 15 15 13 14 11 10 10 9 8 7 3 6 7 8 9 9
8 6 4 4 4 6 7 7 7 8 8 10 15 17 13 8 10 7 5 6 7 7 8 9 9 9 9 10 11 11 11 12 12 12 13 14 13 14 14 15 14 12 13 13 14 14 14 4 4 4 5 4 3 7 8 11 12 14 14 13 14 10 7 12 11 10 9 7 3 7 7 8 10 11
5 3 2 3 5 7 9 10 11 11 13 12 9 9 10 10 10 5 5 6 6 6 7 8 8 9 9 10 10 11 11 12 12 12 13 13 14 14 14 15 15 15 14 14 13 14 14 14 9 6 5 5 3 5 8 9 10 16 15 13 13 10 13 12 10 11 11 8 3 2 3 8 9 10
5 5 6 6 7 7 8 9 9 10 10 10 11 9 3 4 5 6 9 9 7 5 6 7 8 8 9 10 10 11 11 12 12 12 13 14 14 14 14 13 13 15 15 14 13 13 12 12 12 11 4 1 2 4 7 8 11 13 14 16 14 11 12 11 14 14 14 9 8 7 10 10 7 5
6 6 6 6 7 8 9 7 9 8 7 7 6 5 6 5 5 5 4 6 6 5 6 7 8 8 9 9 10 10 11 11 12 12 14 15 13 14 14 14 14 15 16 16 15 15 14 13 12 13 3 3 4 1 8 12 14 13 13 14 16 16 15 13 12 12 13 11 9 9 10 10 10 10
4 5 5 6 6 8 8 7 6 5 5 5 5 5 4 5 7 5 5 6 5 5 7 7 7 8 9 9 10 10 11 11 12 12 12 15 13 13 14 14 14 14 14 15 15 15 15 14 14 13 8 4 4 5 4 7 11 12 12 14 14 13 14 14 12 13 11 12 9 9 9 10 10 11
4 3 4 5 7 7 7 5 5 4 5 4 4 6 6 6 5 4 6 6 5 6 5 6 7 8 8 9 9 10 10 11 11 12 11 13 13 13 13 14 15 15 15 15 15 14 15 14 15 15 13 11 4 4 7 7 7 11 12 13 14 14 14 13 12 13 14 13 12 9 8 9 11 11
4 5 5 5 5 8 7 5 7 6 6 5 6 6 4 4 4 5 5 5 5 6 5 4 5 5 6 9 9 9 9 9 10 11 11 12 12 12 13 13 14 15 15 15 15 15 14 15 15 15 15 14 15 12 3 10 15 7 11 11 12 13 14 14 12 10 12 11 10 9 9 9 7 9
4 6 7 7 8 8 6 8 7 7 8 7 6 6 5 5 6 6 5 4 7 5 5 5 4 5 5 5 8 6 6 8 7 9 8 11 12 12 11 11 12 13 15 15 14 14 14 14 15 15 15 13 14 14 12 3 10 13 7 9 9 9 11 11 14 16 12 10 9 8 8 6 8 8
6 8 8 8 8 8 8 8 7 6 6 6 7 7 6 6 7 6 6 6 5 4 5 4 5 5 6 8 6 6 7 7 8 7 7 10 10 10 10 10 11 13 14 14 14 14 14 13 14 15 14 14 14 15 15 9 1 7 13 9 9 10 10 14 14 15 11 8 9 8 5 7 8 9
8 8 8 8 8 8 8 7 7 6 7 6 6 7 6 6 6 6 5 5 6 5 5 5 6 6 6 8 6 6 6 7 7 7 7 8 10 11 9 10 10 12 13 13 14 14 14 14 14 14 15 11 13 13 12 13 6 1 7 12 7 8 10 9 8 9 9 9 9 8 5 3 1 6
9 9 8 8 8 8 8 7 7 7 7 7 7 7 7 6 6 6 6 5 4 5 6 5 5 6 5 5 5 6 7 9 8 6 7 7 7 9 10 8 9 9 10 10 11 14 14 12 11 12 10 8 7 8 9 8 5 3 3 8 11 11 6 9 9 9 12 9 7 9 6 7 11 11
10 10 10 9 9 9 8 7 7 7 7 7 7 7 7 7 7 7 7 4 3 4 5 5 6 7 5 5 5 5 6 6 6 6 7 6 6 6 7 8 8 8 9 9 11 11 11 14 14 15 11 9 9 10 8 9 10 11 5 2 7 11 14 12 6 7 8 7 8 8 10 9 8 9
10 10 10 9 10 10 9 8 8 8 7 7 7 6 7 6 5 4 3 4 8 5 6 6 5 4 5 5 5 5 6 6 7 7 6 6 7 7 7 7 8 8 8 9 10 10 13 13 13 13 11 8 9 11 13 11 11 10 10 4 4 4 9 12 16 12 9 11 11 13 5 1 3 12
10 9 9 9 9 9 8 8 7 7 7 7 7 7 5 4 4 4 4 4 4 5 5 5 5 5 5 5 5 5 6 6 6 6 5 5 6 7 8 8 7 8 7 8 9 9 9 13 13 12 9 9 10 9 11 10 7 9 9 11 7 2 2 7 14 14 14 15 12 8 6 4 5 10
8 9 9 9 9 8 8 8 8 8 7 7 7 6 4 4 4 4 5 5 5 4 5 5 5 5 5 6 5 5 6 7 7 6 6 6 6 6 7 7 6 5 7 8 8 8 8 8 8 9 10 10 10 10 9 9 10 8 9 9 5 8 4 3 4 7 8 10 10 9 14 17 18 16
9 9 8 8 8 8 8 8 8 8 7 7 5 4 4 4 4 4 5 5 5 5 6 5 5 5 6 5 5 6 7 7 7 6 6 6 7 6 6 6 7 6 7 7 8 8 8 8 8 8 8 8 8 8 7 7 8 7 7 8 10 9 8 7 6 3 3 4 5 7 8 12 13 16
Wind_Direction
78 76 75 78 74 52 38 37 32 28 19 25 16 18 24 358 347 358 342 10 338 355 352 333 335 338 333 330 324 322 317 314 316 316 314 314 310 307 305 301 297 291 288 285 281 275 276 273 271 268 273 281 286 290 292 293 294 294 297 297 294 291 289 287 284 286 287 285 285 285 285 285 285 286
77 76 74 70 64 43 47 46 23 21 13 18 24 12 21 16 6 354 337 330 341 339 333 332 328 328 327 325 322 318 313 315 317 317 312 310 311 308 303 293 288 285 280 277 275 276 276 271 269 274 281 285 286 285 285 284 287 289 294 295 293 292 292 291 290 287 284 285 281 281 281 283 282 282
94 92 87 84 73 66 49 40 44 25 10 1 21 18 8 25 4 345 329 316 342 337 322 321 320 318 319 322 316 312 315 318 318 312 313 312 311 302 298 298 298 294 289 288 294 294 287 280 276 275 276 281 279 281 282 283 285 289 293 291 289 288 287 287 286 285 283 280 280 280 280 281 280 280
110 112 94 62 70 97 107 70 25 36 32 357 1 9 358 3 1 332 321 311 307 325 319 318 312 316 319 314 313 317 315 317 314 316 312 313 309 310 311 309 309 307 303 303 303 301 293 280 280 282 282 284 285 289 292 291 288 287 284 281 279 277 277 278 279 280 279 279 277 275 277 279 279 279
97 86 84 81 70 27 23 23 36 25 4 358 358 353 344 344 346 334 322 312 312 311 320 313 314 313 313 313 317 314 316 317 319 314 314 316 314 311 312 312 312 312 312 310 305 302 298 298 295 296 296 292 289 287 286 283 281 278 274 273 271 268 270 271 273 275 278 277 276 275 276 277 277 275
90 86 81 82 65 33 32 10 22 15 358 360 11 345 355 339 334 334 320 316 307 308 312 315 312 309 318 312 314 315 318 319 318 319 319 316 315 313 313 315 313 315 316 313 307 302 306 303 302 298 295 292 289 286 282 279 276 275 273 271 267 265 265 266 268 270 273 274 273 271 271 273 272 271
109 107 112 99 74 22 10 30 39 14 360 344 9 348 337 331 325 322 316 307 303 306 308 310 313 317 319 312 314 320 319 317 322 321 318 318 316 315 315 313 313 312 315 307 301 305 309 307 306 307 306 305 298 291 289 285 281 276 272 269 265 262 258 258 261 263 267 270 272 271 270 271 272 272
125 112 109 97 105 38 50 7 30 27 356 344 354 343 336 320 329 321 308 300 299 303 304 310 313 319 315 316 320 321 317 323 325 319 316 315 316 315 315 314 312 315 310 300 305 320 322 319 314 315 315 312 310 308 302 295 289 283 276 269 267 265 262 258 256 254 257 260 259 263 267 270 271 269
119 132 102 95 62 20 21 32 19 17 356 348 345 345 336 329 330 320 311 306 305 305 303 307 311 314 316 321 320 321 327 327 321 320 319 320 317 315 314 312 314 312 307 304 316 319 319 318 322 322 316 315 314 305 297 291 287 283 278 273 268 264 261 257 254 253 253 252 251 252 256 262 265 265
125 118 123 91 65 36 28 30 20 7 351 347 339 345 337 329 328 321 311 309 311 306 306 311 313 319 324 324 322 329 333 327 321 321 321 317 316 318 317 317 317 320 316 315 324 332 330 321 316 317 320 313 301 294 288 285 284 281 277 270 265 263 260 259 256 252 251 250 251 252 255 258 263 264
136 125 116 122 75 49 30 28 24 8 352 346 339 347 336 333 326 320 319 320 313 314 316 313 317 320 325 325 325 333 331 323 325 325 324 317 317 315 318 317 320 318 316 326 336 330 326 325 325 322 310 301 298 297 297 295 291 283 272 262 260 261 262 262 260 256 252 250 249 248 249 253 256 260
137 147 145 121 86 54 42 22 26 18 0 347 342 349 337 335 327 324 324 321 320 322 323 321 325 327 323 327 330 328 326 325 325 329 323 318 320 322 320 319 319 320 320 323 332 335 333 330 324 323 322 316 315 311 306 305 302 296 288 291 286 275 268 266 264 259 254 251 250 247 247 247 249 246
161 156 137 105 93 78 69 21 327 326 323 344 345 339 339 333 330 326 326 326 328 326 324 324 329 325 326 329 331 331 330 333 329 325 322 315 316 317 318 320 316 319 324 329 333 336 338 332 328 326 323 321 319 315 313 310 306 316 339 301 281 276 266 259 256 253 248 243 245 246 244 245 246 246
188 182 153 127 134 187 206 206 214 216 222 244 281 324 323 326 333 334 331 334 336 331 327 330 329 327 327 328 331 325 328 327 324 322 323 319 319 318 316 312 317 323 326 336 339 336 339 332 326 325 325 323 320 316 314 311 316 315 311 309 305 295 285 271 259 253 249 244 241 240 241 242 243 241
188 194 177 152 181 199 212 215 220 221 220 225 240 246 249 257 279 322 330 332 335 333 324 323 326 326 322 325 324 324 329 329 327 323 321 318 320 323 323 322 320 327 330 337 337 332 339 334 324 323 318 318 318 314 310 315 311 306 306 306 300 296 289 282 270 252 248 243 237 236 237 238 239 237
185 185 164 178 188 188 25 321 218 213 217 226 231 240 244 237 243 254 273 299 320 332 323 319 322 321 325 322 322 328 331 327 321 319 318 318 320 319 318 315 317 324 333 339 337 332 338 332 328 326 322 319 316 313 311 311 314 318 314 309 304 295 287 278 268 260 246 241 237 235 234 234 237 238
162 171 186 199 219 154 179 231 299 343 261 216 229 239 245 242 233 232 241 254 248 300 311 316 314 323 323 320 321 326 322 319 314 318 317 318 316 314 311 312 315 318 334 337 332 321 328 336 329 320 323 325 318 317 315 318 319 314 307 298 292 290 288 283 275 264 254 245 239 235 234 234 234 235
183 192 205 193 196 178 216 68 2 341 318 323 293 258 250 266 214 217 228 232 239 243 282 310 312 313 319 313 313 313 313 314 316 315 314 314 312 311 310 312 310 320 334 350 334 310 312 332 333 332 330 324 326 321 318 314 306 301 296 292 287 289 289 285 278 267 256 247 243 238 236 233 232 231
200 199 224 256 224 183 211 66 33 330 330 322 301 297 313 310 317 281 208 223 280 307 306 303 305 304 305 305 304 303 303 301 302 303 301 306 305 306 310 306 312 315 327 349 350 306 320 336 338 335 327 330 325 324 322 319 319 319 319 313 303 291 283 280 277 268 258 249 241 239 235 232 230 229
200 190 200 209 211 230 129 99 106 332 321 311 300 311 321 320 313 308 122 257 253 273 298 299 298 297 289 284 284 287 289 291 286 288 297 301 311 318 316 318 321 321 332 13 357 319 322 336 336 330 330 325 324 318 323 326 321 318 310 304 299 293 285 277 269 263 255 247 243 237 232 228 225 225
197 191 198 215 197 225 99 105 104 54 305 305 307 322 325 317 315 323 342 205 237 248 249 256 264 266 270 271 272 275 279 277 279 286 300 320 325 319 321 321 322 326 330 28 41 317 306 337 336 332 325 320 314 313 313 317 321 317 307 302 301 299 297 288 268 257 249 243 239 235 229 223 218 219
193 130 59 344 249 214 101 99 77 32 316 312 319 326 323 318 326 332 337 325 317 312 300 290 274 263 259 262 264 266 275 286 290 304 321 324 323 320 322 321 322 321 328 9 13 306 316 328 336 329 320 307 305 307 298 316 330 330 324 317 313 310 307 301 284 255 245 242 236 231 224 218 209 212
197 158 167 213 282 352 82 86 47 4 319 311 323 325 314 321 329 338 331 320 318 316 314 309 312 308 299 298 311 318 311 306 305 324 323 323 322 322 322 322 322 323 328 9 340 325 325 357 343 337 327 326 307 282 297 318 331 334 330 323 320 314 307 306 290 261 247 240 234 224 214 206 199 222
210 179 178 182 212 192 160 257 262 282 280 288 310 317 311 325 324 332 318 310 303 303 300 312 322 322 324 323 322 329 330 328 332 327 326 323 322 322 322 321 324 322 322 353 28 344 285 46 329 340 324 319 323 326 322 322 326 328 329 325 319 317 316 311 304 274 243 237 230 218 202 195 191 214
199 198 199 186 174 185 176 197 224 269 260 264 291 292 304 316 316 308 300 296 294 292 315 327 328 333 334 333 332 333 333 335 333 328 321 321 324 324 322 322 322 320 320 339 151 351 317 346 329 325 322 318 304 314 316 314 321 330 332 327 320 316 312 306 296 295 260 229 223 206 194 188 189 207
204 198 217 160 147 172 187 189 223 252 266 258 257 276 284 296 297 290 290 287 289 325 333 333 336 336 337 340 340 338 337 336 331 325 322 326 327 323 322 321 320 318 322 331 338 74 353 331 348 332 320 323 318 324 321 319 319 323 324 327 323 318 309 302 306 297 271 264 226 193 190 185 188 205
204 196 120 106 136 169 192 199 220 245 258 257 248 254 268 275 281 281 280 279 312 335 332 331 339 339 343 343 342 341 337 332 329 325 328 327 327 324 320 321 317 317 322 325 334 113 97 268 339 345 326 319 318 318 318 329 331 333 331 337 332 325 324 322 318 312 306 261 244 168 176 177 189 198
213 188 106 116 148 186 186 235 247 256 249 256 271 269 263 265 269 276 271 286 339 326 325 339 339 342 343 342 341 341 336 332 332 335 331 329 328 326 324 323 321 323 325 327 334 341 181 268 279 323 327 328 323 325 324 321 321 329 328 331 328 328 323 327 326 320 313 315 132 149 165 171 192 193
32 30 44 76 50 5 304 282 279 268 257 253 253 258 262 265 273 268 302 341 333 322 333 341 339 341 343 340 340 335 333 332 339 339 333 331 328 328 326 324 322 327 330 332 335 340 324 220 296 291 309 342 327 310 315 311 314 331 341 338 340 331 325 331 324 317 312 299 201 163 170 174 174 193
299 303 337 333 298 276 257 253 247 249 258 240 240 243 246 260 262 277 327 332 325 317 339 338 339 340 336 339 335 332 336 340 345 340 339 338 337 335 334 331 332 336 336 332 338 344 343 316 213 283 297 334 0 318 321 321 328 338 346 343 330 314 331 334 323 317 312 322 188 178 181 175 169 176
247 207 222 258 265 275 287 280 280 282 287 286 253 237 235 241 247 278 318 323 306 318 337 334 337 333 336 333 331 338 339 344 344 342 342 342 339 338 337 333 335 336 337 336 342 349 345 350 348 301 320 342 5 337 320 319 330 344 349 350 347 345 322 323 336 341 336 316 136 203 201 147 152 174
222 227 207 216 239 242 244 247 242 242 244 250 254 254 273 266 279 273 239 232 265 323 338 329 325 325 336 333 337 336 339 342 340 340 348 346 339 342 339 338 340 337 335 337 343 348 347 354 354 337 37 115 14 337 338 342 353 349 353 357 353 347 349 346 347 348 342 347 65 56 48 47 35 32
207 214 228 236 235 234 239 245 252 252 234 231 250 270 253 258 282 287 326 321 308 328 333 319 322 330 333 329 332 337 336 339 337 345 350 352 349 343 344 343 340 340 337 340 345 345 349 350 0 347 54 143 137 92 5 358 2 1 356 351 359 359 355 343 343 344 350 359 31 45 44 44 33 25
229 219 228 238 240 244 248 249 252 256 265 275 275 280 289 270 264 279 306 294 299 331 314 314 320 332 322 325 331 334 334 333 335 342 348 351 353 347 347 345 342 339 336 341 344 345 345 350 352 350 359 125 107 52 38 20 2 0 360 3 5 354 352 350 346 347 2 15 9 30 36 37 33 30
230 246 251 257 260 260 260 263 261 259 256 252 255 261 265 269 281 277 276 286 299 308 300 300 320 315 319 324 327 330 328 329 333 346 344 347 350 348 346 345 341 338 340 342 344 345 346 350 352 350 349 353 18 130 67 46 34 3 2 12 4 3 356 352 344 357 4 19 20 21 26 29 31 26
222 226 233 240 249 254 256 251 250 256 270 271 264 258 258 264 266 269 267 272 301 294 293 325 313 314 325 322 329 324 323 326 332 339 339 341 348 346 345 344 339 338 341 346 344 346 347 351 354 353 351 354 357 357 37 75 64 22 18 2 6 3 2 360 356 360 10 9 17 24 27 18 10 12
233 237 243 244 241 241 244 250 251 249 243 246 256 269 270 265 261 259 271 293 273 286 312 302 307 326 318 329 322 317 327 330 333 335 336 340 346 344 340 339 337 338 343 344 343 344 349 353 355 355 353 354 353 353 353 352 55 50 17 19 5 13 359 0 13 16 8 359 356 25 29 11 10 360
230 238 241 245 249 250 249 247 243 241 250 260 263 267 274 277 276 270 268 267 286 302 304 311 322 317 325 322 319 329 325 326 325 328 333 338 341 342 340 338 335 341 344 340 342 344 348 351 356 357 354 354 348 351 345 357 51 24 17 17 19 10 6 14 19 12 357 351 1 353 17 28 12 357
234 236 234 241 246 249 251 248 250 252 254 259 267 268 266 271 271 275 275 285 289 294 318 318 313 323 312 313 317 310 312 321 330 331 331 334 336 336 334 333 329 337 340 338 339 345 349 350 353 354 355 353 352 344 344 343 5 91 22 22 13 31 23 20 9 15 6 4 355 344 10 23 224 345
231 240 243 242 242 246 245 246 247 247 249 248 252 254 259 261 271 273 276 271 287 326 313 302 304 306 303 296 300 324 329 330 334 331 331 330 329 326 325 322 322 336 338 335 336 345 348 350 345 347 338 355 342 339 338 345 357 125 121 26 28 47 45 35 21 10 17 7 350 15 8 4 20 5
224 227 231 237 245 248 249 252 255 259 258 259 257 260 260 262 264 270 274 304 316 303 290 290 288 279 287 314 323 319 320 328 327 326 327 326 320 316 310 305 326 339 335 332 338 342 347 346 333 322 321 347 348 342 351 354 5 4 26 96 22 55 56 58 42 22 29 355 10 32 29 15 5 7
223 224 225 225 230 237 243 244 247 248 253 256 261 265 268 267 263 259 286 290 267 252 260 271 279 300 312 312 318 321 323 320 322 332 331 326 316 313 311 322 332 331 332 332 336 341 337 335 334 343 343 348 352 354 2 353 358 5 360 28 138 53 70 73 56 50 38 24 23 28 34 59 13 26
223 229 226 227 232 238 241 244 248 252 255 258 259 261 265 270 273 259 260 265 281 284 282 287 297 306 312 315 314 319 315 316 328 327 325 312 310 314 320 326 327 324 327 322 329 330 331 335 338 341 341 355 354 349 354 344 354 6 3 1 6 121 118 74 86 70 49 45 37 48 58 62 14 34
234 228 233 234 235 235 240 246 250 250 252 255 257 256 253 256 257 256 253 257 265 279 296 300 295 293 300 309 311 311 315 322 323 317 311 310 310 319 324 317 314 321 319 323 326 329 332 332 333 340 341 356 352 348 347 343 354 8 8 356 348 352 21 146 153 107 80 51 36 61 74 84 99 111
238 241 237 237 239 242 244 244 244 245 248 250 254 257 261 260 265 272 273 268 266 264 265 274 290 298 296 297 305 313 316 314 304 301 305 316 326 322 313 316 320 319 320 324 324 325 331 329 332 339 337 349 351 344 340 336 343 358 6 6 358 2 359 357 10 71 54 64 9 9 67 87 97 100